| time (UTC) | temp C | wind direction | speed KPH | gust KPH | rain 1hr cm | rain 24hr cm | rain mn cm | humidity % | barometer mb |
| 20260504194821 | 20 | 162 | 8.0 | 16.1 | 0.00 | 0.00 | 0.00 | 49 | 1014.2 |
| 20260504194316 | 20 | 168 | 8.0 | 17.7 | 0.00 | 0.00 | 0.00 | 46 | 1014.3 |
| 20260504193812 | 21 | 174 | 8.0 | 14.5 | 0.00 | 0.00 | 0.00 | 46 | 1013.9 |
| 20260504193310 | 21 | 170 | 14.5 | 16.1 | 0.00 | 0.00 | 0.00 | 48 | 1014.0 |
| 20260504192809 | 20 | 141 | 8.0 | 20.9 | 0.00 | 0.00 | 0.00 | 48 | 1014.1 |
| 20260504192306 | 21 | 159 | 3.2 | 20.9 | 0.00 | 0.00 | 0.00 | 47 | 1014.3 |
| 20260504191805 | 20 | 159 | 6.4 | 16.1 | 0.00 | 0.00 | 0.00 | 47 | 1014.4 |
| 20260504191301 | 21 | 180 | 9.7 | 25.7 | 0.00 | 0.00 | 0.00 | 47 | 1014.5 |
| 20260504190757 | 21 | 127 | 9.7 | 12.9 | 0.00 | 0.00 | 0.00 | 46 | 1014.4 |
| 20260504190253 | 21 | 188 | 9.7 | 16.1 | 0.00 | 0.00 | 0.00 | 46 | 1014.4 |
| 20260504185750 | 21 | 151 | 9.7 | 16.1 | 0.00 | 0.00 | 0.00 | 46 | 1014.6 |
| 20260504185247 | 20 | 179 | 9.7 | 24.1 | 0.00 | 0.00 | 0.00 | 47 | 1014.5 |
| 20260504184743 | 20 | 161 | 9.7 | 17.7 | 0.00 | 0.00 | 0.00 | 48 | 1014.7 |
| 20260504184239 | 20 | 131 | 4.8 | 11.3 | 0.00 | 0.00 | 0.00 | 48 | 1014.6 |
| 20260504183735 | 21 | 193 | 4.8 | 11.3 | 0.00 | 0.00 | 0.00 | 48 | 1014.7 |
| 20260504183232 | 21 | 109 | 4.8 | 12.9 | 0.00 | 0.00 | 0.00 | 48 | 1014.8 |
| 20260504182730 | 20 | 116 | 4.8 | 12.9 | 0.00 | 0.00 | 0.00 | 51 | 1014.9 |
| 20260504182227 | 20 | 158 | 8.0 | 11.3 | 0.00 | 0.00 | 0.00 | 49 | 1014.9 |
| 20260504181725 | 20 | 109 | 11.3 | 14.5 | 0.00 | 0.00 | 0.00 | 51 | 1015.1 |
| 20260504181222 | 21 | 162 | 6.4 | 12.9 | 0.00 | 0.00 | 0.00 | 50 | 1015.3 |
| 20260504180721 | 21 | 153 | 6.4 | 11.3 | 0.00 | 0.00 | 0.00 | 48 | 1015.3 |
| 20260504180219 | 20 | 181 | 8.0 | 17.7 | 0.00 | 0.00 | 0.00 | 49 | 1015.4 |
| 20260504175716 | 21 | 157 | 8.0 | 16.1 | 0.00 | 0.00 | 0.00 | 48 | 1015.3 |
| 20260504175213 | 21 | 195 | 6.4 | 9.7 | 0.00 | 0.00 | 0.00 | 47 | 1015.4 |
| 20260504174711 | 21 | 126 | 9.7 | 27.4 | 0.00 | 0.00 | 0.00 | 51 | 1015.5 |
| 20260504174209 | 22 | 174 | 4.8 | 9.7 | 0.00 | 0.00 | 0.00 | 36 | 1015.5 |
| 20260504173704 | 23 | 184 | 4.8 | 9.7 | 0.00 | 0.00 | 0.00 | 28 | 1015.6 |
| 20260504173202 | 22 | 119 | 11.3 | 14.5 | 0.00 | 0.00 | 0.00 | 38 | 1015.5 |
| 20260504172658 | 23 | 291 | 1.6 | 14.5 | 0.00 | 0.00 | 0.00 | 26 | 1015.8 |
| 20260504172155 | 22 | 168 | 3.2 | 9.7 | 0.00 | 0.00 | 0.00 | 28 | 1015.5 |
| 20260504171651 | 23 | 177 | 4.8 | 9.7 | 0.00 | 0.00 | 0.00 | 28 | 1015.6 |
| 20260504171149 | 23 | 165 | 4.8 | 11.3 | 0.00 | 0.00 | 0.00 | 28 | 1015.8 |
| 20260504170645 | 22 | 228 | 6.4 | 9.7 | 0.00 | 0.00 | 0.00 | 27 | 1015.8 |
| 20260504170143 | 22 | 161 | 4.8 | 9.7 | 0.00 | 0.00 | 0.00 | 27 | 1015.9 |
| 20260504151028 | 21 | 257 | 1.6 | 8.0 | 0.00 | 0.00 | 0.00 | 33 | 1017.1 |
| 20260504150525 | 20 | 201 | 4.8 | 11.3 | 0.00 | 0.00 | 0.00 | 34 | 1017.2 |
| 20260504140951 | 19 | 161 | 6.4 | 17.7 | 0.00 | 0.00 | 0.00 | 33 | 1017.6 |
| 20260504140447 | 19 | 160 | 11.3 | 14.5 | 0.00 | 0.00 | 0.00 | 33 | 1017.6 |
| 20260504130412 | 17 | 185 | 9.7 | 11.3 | 0.00 | 0.00 | 0.00 | 43 | 1018.1 |
| 20260504110259 | 11 | 162 | 4.8 | 9.7 | 0.00 | 0.00 | 0.00 | 66 | 1019.0 |
| 20260504100217 | 8 | 151 | 3.2 | 8.0 | 0.00 | 0.00 | 0.00 | 69 | 1018.8 |
| 20260504090140 | 9 | 196 | 3.2 | 8.0 | 0.00 | 0.00 | 0.00 | 66 | 1018.8 |
| 20260504081610 | 8 | 208 | 3.2 | 4.8 | 0.00 | 0.00 | 0.00 | 63 | 1018.5 |
| 20260504081106 | 8 | 117 | 3.2 | 3.2 | 0.00 | 0.00 | 0.00 | 63 | 1018.7 |
| 20260504080603 | 8 | 170 | 4.8 | 4.8 | 0.00 | 0.00 | 0.00 | 64 | 1018.7 |
| 20260504050415 | 8 | 128 | 3.2 | 3.2 | 0.00 | 0.00 | 0.00 | 52 | 1018.2 |
| 20260504045912 | 9 | 229 | 1.6 | 8.0 | 0.00 | 0.00 | 0.00 | 51 | 1017.9 |
| 20260504045408 | 8 | 215 | 0.0 | 3.2 | 0.00 | 0.00 | 0.00 | 52 | 1017.9 |
| 20260504044905 | 8 | 124 | 3.2 | 3.2 | 0.00 | 0.00 | 0.00 | 53 | 1017.9 |
| 20260504044402 | 8 | 122 | 4.8 | 6.4 | 0.00 | 0.00 | 0.00 | 53 | 1017.9 |
| 20260504043900 | 8 | 164 | 3.2 | 4.8 | 0.00 | 0.00 | 0.00 | 51 | 1017.8 |
| 20260504043356 | 8 | 173 | 0.0 | 4.8 | 0.00 | 0.00 | 0.00 | 52 | 1017.8 |
| 20260504042854 | 8 | 114 | 0.0 | 6.4 | 0.00 | 0.00 | 0.00 | 52 | 1017.6 |
| 20260504042350 | 8 | 167 | 4.8 | 6.4 | 0.00 | 0.00 | 0.00 | 51 | 1017.6 |
| 20260504041846 | 8 | 119 | 3.2 | 6.4 | 0.00 | 0.00 | 0.00 | 52 | 1017.6 |
| 20260504041343 | 8 | 117 | 1.6 | 3.2 | 0.00 | 0.00 | 0.00 | 51 | 1017.8 |
| 20260504040838 | 8 | 152 | 3.2 | 6.4 | 0.00 | 0.00 | 0.00 | 50 | 1017.5 |
| 20260504040337 | 8 | 115 | 3.2 | 4.8 | 0.00 | 0.00 | 0.00 | 52 | 1017.6 |
| 20260504035832 | 8 | 157 | 1.6 | 4.8 | 0.00 | 0.00 | 0.00 | 52 | 1017.6 |
| 20260504035330 | 8 | 148 | 1.6 | 3.2 | 0.00 | 0.00 | 0.00 | 51 | 1017.6 |
| 20260504034827 | 8 | 139 | 3.2 | 4.8 | 0.00 | 0.00 | 0.00 | 51 | 1017.6 |
| 20260504034324 | 8 | 135 | 3.2 | 3.2 | 0.00 | 0.00 | 0.00 | 51 | 1017.6 |
| 20260504033821 | 8 | 148 | 1.6 | 3.2 | 0.00 | 0.00 | 0.00 | 51 | 1017.4 |
| 20260504033319 | 8 | 145 | 1.6 | 3.2 | 0.00 | 0.00 | 0.00 | 51 | 1017.3 |
| 20260504032815 | 8 | 105 | 1.6 | 4.8 | 0.00 | 0.00 | 0.00 | 51 | 1017.4 |
| 20260504032313 | 8 | 127 | 3.2 | 4.8 | 0.00 | 0.00 | 0.00 | 50 | 1017.5 |
| 20260504031810 | 8 | 130 | 3.2 | 4.8 | 0.00 | 0.00 | 0.00 | 51 | 1017.3 |
| 20260504031307 | 8 | 121 | 3.2 | 3.2 | 0.00 | 0.00 | 0.00 | 52 | 1017.2 |
| 20260504030803 | 8 | 157 | 0.0 | 4.8 | 0.00 | 0.00 | 0.00 | 51 | 1017.3 |
| 20260504030300 | 8 | 112 | 3.2 | 3.2 | 0.00 | 0.00 | 0.00 | 52 | 1017.4 |
| 20260504025756 | 8 | 127 | 3.2 | 4.8 | 0.00 | 0.00 | 0.00 | 50 | 1017.4 |
| 20260504025253 | 8 | 117 | 0.0 | 3.2 | 0.00 | 0.00 | 0.00 | 52 | 1017.1 |
| 20260504024750 | 8 | 151 | 0.0 | 3.2 | 0.00 | 0.00 | 0.00 | 53 | 1017.2 |
| 20260504024247 | 8 | 151 | 1.6 | 3.2 | 0.00 | 0.00 | 0.00 | 52 | 1017.2 |
| 20260504023744 | 8 | 105 | 0.0 | 3.2 | 0.00 | 0.00 | 0.00 | 53 | 1017.1 |
| 20260504023240 | 8 | 157 | 0.0 | 1.6 | 0.00 | 0.00 | 0.00 | 52 | 1017.1 |
| 20260504022736 | 8 | 157 | 0.0 | 3.2 | 0.00 | 0.00 | 0.00 | 50 | 1017.2 |
| 20260504022232 | 8 | 157 | 0.0 | 3.2 | 0.00 | 0.00 | 0.00 | 51 | 1017.2 |
| 20260504021730 | 9 | 139 | 3.2 | 4.8 | 0.00 | 0.00 | 0.00 | 49 | 1017.3 |
| 20260504021227 | 9 | 140 | 1.6 | 4.8 | 0.00 | 0.00 | 0.00 | 50 | 1017.2 |
| 20260504020723 | 9 | 118 | 4.8 | 4.8 | 0.00 | 0.00 | 0.00 | 50 | 1017.4 |
| 20260504020220 | 9 | 218 | 3.2 | 4.8 | 0.00 | 0.00 | 0.00 | 50 | 1017.4 |
| 20260504015716 | 9 | 243 | 0.0 | 4.8 | 0.00 | 0.00 | 0.00 | 49 | 1017.4 |
| 20260504015213 | 9 | 146 | 0.0 | 4.8 | 0.00 | 0.00 | 0.00 | 49 | 1017.2 |
| 20260504014708 | 8 | 180 | 1.6 | 1.6 | 0.00 | 0.00 | 0.00 | 50 | 1017.1 |
| 20260504014205 | 9 | 171 | 3.2 | 4.8 | 0.00 | 0.00 | 0.00 | 50 | 1017.1 |
| 20260504013703 | 8 | 145 | 0.0 | 3.2 | 0.00 | 0.00 | 0.00 | 51 | 1017.1 |
| 20260504013200 | 8 | 126 | 0.0 | 3.2 | 0.00 | 0.00 | 0.00 | 51 | 1017.1 |
| 20260504012657 | 9 | 144 | 0.0 | 3.2 | 0.00 | 0.00 | 0.00 | 51 | 1017.0 |
| 20260504012155 | 9 | 135 | 0.0 | 4.8 | 0.00 | 0.00 | 0.00 | 50 | 1016.8 |
| 20260504011652 | 9 | 168 | 1.6 | 3.2 | 0.00 | 0.00 | 0.00 | 49 | 1016.9 |
| 20260504011148 | 9 | 131 | 0.0 | 3.2 | 0.00 | 0.00 | 0.00 | 50 | 1016.8 |
| 20260504010644 | 9 | 160 | 0.0 | 1.6 | 0.00 | 0.00 | 0.00 | 49 | 1016.6 |
| 20260504010139 | 9 | 157 | 1.6 | 3.2 | 0.00 | 0.00 | 0.00 | 49 | 1016.6 |
| 20260504005637 | 9 | 157 | 1.6 | 3.2 | 0.00 | 0.00 | 0.00 | 50 | 1016.6 |
| 20260504005133 | 9 | 160 | 1.6 | 3.2 | 0.00 | 0.00 | 0.00 | 50 | 1016.5 |
| 20260504004632 | 9 | 128 | 0.0 | 3.2 | 0.00 | 0.00 | 0.00 | 50 | 1016.4 |
| 20260504004129 | 9 | 120 | 3.2 | 3.2 | 0.00 | 0.00 | 0.00 | 50 | 1016.0 |
| 20260504003625 | 9 | 166 | 0.0 | 3.2 | 0.00 | 0.00 | 0.00 | 49 | 1016.3 |
| 20260504003121 | 10 | 160 | 1.6 | 3.2 | 0.00 | 0.00 | 0.00 | 49 | 1016.3 |
| 20260504002618 | 10 | 135 | 3.2 | 3.2 | 0.00 | 0.00 | 0.00 | 49 | 1016.3 |
| 20260504002116 | 10 | 146 | 3.2 | 3.2 | 0.00 | 0.00 | 0.00 | 48 | 1016.2 |
| 20260504001614 | 10 | 126 | 1.6 | 1.6 | 0.00 | 0.00 | 0.00 | 47 | 1016.1 |
| 20260504001109 | 10 | 145 | 0.0 | 3.2 | 0.00 | 0.00 | 0.00 | 47 | 1016.1 |
| 20260504000607 | 10 | 131 | 3.2 | 3.2 | 0.00 | 0.00 | 0.00 | 46 | 1015.8 |
| 20260504000104 | 11 | 145 | 1.6 | 3.2 | 0.00 | 0.00 | 0.00 | 45 | 1016.0 |
| 20260503235603 | 11 | 126 | 0.0 | 3.2 | 0.00 | 0.00 | 0.00 | 45 | 1015.8 |
| 20260503235059 | 11 | 157 | 0.0 | 3.2 | 0.00 | 0.00 | 0.00 | 42 | 1015.8 |
| 20260503234557 | 12 | 151 | 0.0 | 0.0 | 0.00 | 0.00 | 0.00 | 40 | 1015.7 |
| 20260503234055 | 12 | 133 | 4.8 | 4.8 | 0.00 | 0.00 | 0.00 | 39 | 1015.7 |
| 20260503233551 | 12 | 157 | 3.2 | 4.8 | 0.00 | 0.00 | 0.00 | 37 | 1015.6 |
| 20260503233047 | 13 | 90 | 0.0 | 4.8 | 0.00 | 0.00 | 0.00 | 36 | 1015.7 |
| 20260503232544 | 13 | 164 | 3.2 | 3.2 | 0.00 | 0.00 | 0.00 | 33 | 1015.4 |
| 20260503232042 | 13 | 125 | 4.8 | 4.8 | 0.00 | 0.00 | 0.00 | 33 | 1015.5 |
| 20260503231539 | 13 | 140 | 0.0 | 4.8 | 0.00 | 0.00 | 0.00 | 33 | 1015.5 |
| 20260503231036 | 13 | 126 | 0.0 | 4.8 | 0.00 | 0.00 | 0.00 | 32 | 1015.4 |
| 20260503230532 | 14 | 145 | 1.6 | 3.2 | 0.00 | 0.00 | 0.00 | 31 | 1015.5 |
| 20260503230030 | 14 | 195 | 0.0 | 6.4 | 0.00 | 0.00 | 0.00 | 31 | 1015.5 |
| 20260503225527 | 14 | 160 | 0.0 | 3.2 | 0.00 | 0.00 | 0.00 | 31 | 1015.6 |
| 20260503225022 | 14 | 188 | 4.8 | 4.8 | 0.00 | 0.00 | 0.00 | 29 | 1015.4 |
| 20260503224520 | 15 | 187 | 0.0 | 6.4 | 0.00 | 0.00 | 0.00 | 30 | 1015.4 |
| 20260503224017 | 15 | 177 | 0.0 | 6.4 | 0.00 | 0.00 | 0.00 | 31 | 1015.3 |
| 20260503223515 | 15 | 141 | 3.2 | 8.0 | 0.00 | 0.00 | 0.00 | 28 | 1015.5 |
| 20260503223010 | 15 | 204 | 3.2 | 9.7 | 0.00 | 0.00 | 0.00 | 28 | 1015.3 |
| 20260503222509 | 15 | 172 | 0.0 | 8.0 | 0.00 | 0.00 | 0.00 | 29 | 1015.2 |
| 20260503222007 | 15 | 178 | 6.4 | 12.9 | 0.00 | 0.00 | 0.00 | 28 | 1015.3 |
| 20260503221505 | 15 | 256 | 8.0 | 17.7 | 0.00 | 0.00 | 0.00 | 27 | 1015.3 |
| 20260503221002 | 15 | 135 | 3.2 | 9.7 | 0.00 | 0.00 | 0.00 | 27 | 1015.1 |
| 20260503220458 | 15 | 277 | 1.6 | 4.8 | 0.00 | 0.00 | 0.00 | 29 | 1015.2 |
| 20260503215954 | 15 | 254 | 4.8 | 9.7 | 0.00 | 0.00 | 0.00 | 26 | 1015.0 |
| 20260503215451 | 15 | 174 | 4.8 | 8.0 | 0.00 | 0.00 | 0.00 | 27 | 1015.3 |
| 20260503214949 | 16 | 273 | 4.8 | 9.7 | 0.00 | 0.00 | 0.00 | 26 | 1015.1 |
| 20260503214447 | 16 | 308 | 3.2 | 6.4 | 0.00 | 0.00 | 0.00 | 27 | 1015.1 |
| 20260503213944 | 16 | 176 | 3.2 | 17.7 | 0.00 | 0.00 | 0.00 | 26 | 1015.2 |
| 20260503213442 | 16 | 255 | 1.6 | 6.4 | 0.00 | 0.00 | 0.00 | 25 | 1014.9 |
| 20260503212938 | 16 | 182 | 4.8 | 14.5 | 0.00 | 0.00 | 0.00 | 25 | 1015.2 |
| 20260503212435 | 16 | 180 | 4.8 | 6.4 | 0.00 | 0.00 | 0.00 | 25 | 1015.0 |
| 20260503211933 | 16 | 334 | 3.2 | 4.8 | 0.00 | 0.00 | 0.00 | 26 | 1015.0 |
| 20260503211430 | 16 | 194 | 0.0 | 12.9 | 0.00 | 0.00 | 0.00 | 27 | 1014.9 |
| 20260503210924 | 16 | 225 | 3.2 | 11.3 | 0.00 | 0.00 | 0.00 | 27 | 1015.0 |
| 20260503210422 | 16 | 187 | 1.6 | 6.4 | 0.00 | 0.00 | 0.00 | 27 | 1015.1 |
| 20260503205917 | 16 | 239 | 3.2 | 11.3 | 0.00 | 0.00 | 0.00 | 25 | 1015.1 |
| 20260503205414 | 16 | 247 | 8.0 | 17.7 | 0.00 | 0.00 | 0.00 | 26 | 1015.0 |
| 20260503204910 | 16 | 165 | 1.6 | 8.0 | 0.00 | 0.00 | 0.00 | 25 | 1014.8 |
| 20260503204408 | 16 | 211 | 4.8 | 6.4 | 0.00 | 0.00 | 0.00 | 27 | 1014.9 |
| 20260503203905 | 16 | 180 | 4.8 | 16.1 | 0.00 | 0.00 | 0.00 | 26 | 1014.8 |
| 20260503203402 | 16 | 126 | 1.6 | 17.7 | 0.00 | 0.00 | 0.00 | 27 | 1014.9 |
| 20260503202859 | 16 | 299 | 4.8 | 14.5 | 0.00 | 0.00 | 0.00 | 25 | 1014.9 |
| 20260503202357 | 16 | 229 | 4.8 | 27.4 | 0.00 | 0.00 | 0.00 | 27 | 1014.9 |
| 20260503201855 | 16 | 168 | 0.0 | 9.7 | 0.00 | 0.00 | 0.00 | 26 | 1014.9 |
| 20260503201352 | 16 | 278 | 1.6 | 14.5 | 0.00 | 0.00 | 0.00 | 27 | 1014.9 |
| 20260503200849 | 16 | 151 | 4.8 | 8.0 | 0.00 | 0.00 | 0.00 | 25 | 1015.0 |
| 20260503200345 | 16 | 222 | 4.8 | 12.9 | 0.00 | 0.00 | 0.00 | 27 | 1015.1 |
| 20260503195842 | 16 | 244 | 11.3 | 12.9 | 0.00 | 0.00 | 0.00 | 26 | 1015.3 |
| 20260503195339 | 15 | 150 | 6.4 | 20.9 | 0.00 | 0.00 | 0.00 | 28 | 1015.1 |